Lid_Strength_Index
4 4 4 4 4 4 4 4 4 4 3 3 3 2 1 1 2 4 7 4 3 -0 1 6 7 7 7 9 9 10 14 13 11 11 11 6 8 6 5 6 5 4 5 3 2
4 4 4 4 4 4 4 4 4 4 4 3 3 2 2 1 4 6 2 0 1 0 9 9 9 7 9 9 9 11 14 12 8 8 9 7 7 7 7 7 7 6 4 3 3
4 4 4 4 5 5 5 5 5 4 4 3 3 2 2 2 5 5 -1 -1 -0 2 8 8 8 8 10 10 9 10 12 9 7 6 8 8 8 6 8 9 7 7 6 4 4
5 5 5 5 5 5 5 5 5 4 4 3 2 2 1 3 10 6 -1 -1 -1 3 6 8 9 10 10 11 9 11 9 8 6 6 8 9 7 8 7 7 5 5 4 4 4
5 5 5 5 5 5 5 5 5 4 4 3 2 2 3 6 5 4 -2 -1 2 4 6 7 9 9 10 9 9 9 8 7 6 6 8 7 8 8 8 5 4 4 4 5 4
5 5 6 5 5 5 5 5 4 4 4 3 2 2 5 9 4 4 3 3 3 5 6 7 8 8 9 9 10 9 8 7 7 8 8 8 8 7 6 5 5 5 5 4 4
5 5 5 5 5 5 4 4 4 4 3 3 2 2 6 7 4 5 4 6 6 6 7 6 7 9 9 9 7 8 11 9 8 8 9 6 10 9 6 5 6 5 5 4 4
6 5 5 5 5 4 4 4 4 4 3 2 1 4 8 2 4 4 6 6 5 5 5 5 6 8 8 8 8 10 11 13 9 9 8 7 12 8 6 6 7 6 6 5 4
5 5 5 5 5 4 4 4 4 3 2 2 5 6 7 3 5 5 6 7 6 5 5 3 6 9 9 12 13 12 15 13 11 8 8 8 11 8 6 6 7 6 6 5 5
5 5 5 5 5 5 4 4 4 3 3 3 4 8 6 7 5 5 6 6 7 7 7 8 9 12 12 14 16 15 13 13 13 9 9 9 10 8 7 7 7 7 6 5 5
5 5 5 5 5 5 6 7 8 7 5 6 6 7 6 6 5 6 5 6 7 9 11 9 13 14 13 12 11 11 12 13 11 9 10 9 10 9 8 7 8 7 7 6 5
6 6 5 5 5 5 6 9 8 8 10 7 6 6 4 4 7 6 5 9 9 12 10 11 13 10 9 9 10 10 12 12 10 9 10 10 9 9 8 8 7 7 7 6 6
6 6 6 6 5 6 8 8 6 4 10 8 6 7 6 6 8 7 6 8 10 11 11 13 10 7 8 10 10 11 12 12 11 10 10 9 10 11 8 7 7 6 6 5 6
6 6 6 6 7 7 9 6 6 5 14 9 8 7 6 6 8 6 6 8 9 11 10 11 9 9 10 10 10 13 10 10 10 12 16 10 16 11 10 10 8 7 6 6 6
6 6 6 6 9 8 7 6 5 5 20 8 8 5 6 8 8 8 5 7 10 10 11 12 11 10 11 10 9 11 9 10 11 13 15 13 15 11 10 11 9 8 7 6 7
6 7 6 8 8 8 6 5 6 13 21 10 7 8 9 8 8 7 8 7 7 10 10 11 8 9 10 8 9 8 10 11 12 13 17 15 14 13 12 11 9 7 7 7 7
7 6 7 7 10 7 6 8 14 19 9 12 12 10 10 10 9 8 9 11 13 14 14 11 11 9 8 11 9 10 13 17 18 18 17 12 15 13 9 8 7 7 7 7 7
7 7 7 6 7 7 7 10 18 12 13 11 12 11 12 10 10 9 10 12 10 11 13 15 15 11 8 10 11 11 12 16 19 19 16 11 15 13 9 6 6 6 5 6 7
6 9 8 8 6 7 9 15 17 13 12 13 11 12 12 10 11 10 10 11 10 10 13 13 14 9 8 8 9 11 13 11 13 13 15 14 12 9 8 9 6 6 6 6 7
10 10 9 7 6 7 10 13 12 11 12 11 14 11 14 12 12 12 10 10 11 9 9 11 14 9 8 7 8 10 9 14 14 18 18 15 14 14 10 9 9 7 7 6 7
10 11 8 6 6 9 13 13 11 10 10 12 13 13 12 13 12 12 11 10 10 11 9 12 12 12 9 10 11 11 12 12 12 13 17 17 15 10 10 9 8 8 6 6 6
11 14 7 6 13 12 13 12 9 12 10 10 10 11 12 13 13 13 12 10 9 10 14 12 12 15 12 9 8 10 11 10 14 15 14 15 14 8 9 8 8 8 6 5 6
12 12 7 8 18 18 12 11 10 12 12 12 12 12 11 12 15 12 10 9 11 11 13 13 14 17 14 11 10 11 10 10 10 11 13 17 15 8 8 8 8 8 6 5 6
11 15 11 10 11 14 14 13 12 10 11 11 12 11 12 14 12 14 13 11 11 12 8 9 12 14 17 14 12 13 12 11 11 15 15 14 12 10 9 9 8 7 7 5 5
10 13 10 17 15 12 12 11 12 13 11 10 12 12 14 16 15 14 13 13 12 10 12 13 15 13 12 12 12 12 13 13 13 12 14 13 12 9 8 8 8 8 7 5 6
12 14 11 12 11 12 11 13 12 12 12 13 13 12 13 15 14 15 14 14 15 13 14 13 16 15 15 12 12 14 13 13 12 12 12 11 11 7 7 7 7 7 6 6 6
7 6 10 11 13 13 13 11 11 10 10 10 11 12 13 11 11 11 12 12 12 13 14 15 16 16 18 14 14 18 15 13 11 11 11 13 10 8 8 8 7 7 6 6 5